| Date | Time | Temp. (oF) | Dew Point (oF) | Rel. Hum. (%) | Press. (in.) | Wind Dir. | Wind Speed (mph) | Hourly Rainfall (in.) |
|
|---|---|---|---|---|---|---|---|---|---|
| 1 | 01/05 | 00:00 | 23 | 16 | 77 | 30.00 | W | 0 | 0.00 |
| 2 | 01/04 | 23:00 | 25 | 17 | 72 | 30.02 | SW | 0 | 0.00 |
| 3 | 01/04 | 22:00 | 26 | 17 | 70 | 30.03 | WSW | 3 | 0.00 |
| 4 | 01/04 | 21:00 | 28 | 18 | 68 | 30.04 | SW | 2 | 0.00 |
| 5 | 01/04 | 20:00 | 29 | 17 | 63 | 30.04 | SSW | 3 | 0.00 |
| 6 | 01/04 | 19:00 | 30 | 18 | 61 | 30.04 | W | 4 | 0.00 |
| 7 | 01/04 | 18:00 | 30 | 18 | 62 | 30.04 | W | 6 | 0.00 |
| 8 | 01/04 | 17:00 | 31 | 18 | 59 | 30.03 | WNW | 6 | 0.00 |
| 9 | 01/04 | 16:00 | 32 | 18 | 57 | 30.03 | W | 9 | 0.00 |
| 10 | 01/04 | 15:00 | 32 | 19 | 59 | 30.01 | W | 3 | 0.00 |
| 11 | 01/04 | 14:00 | 32 | 19 | 60 | 30.02 | WNW | 9 | 0.00 |
| 12 | 01/04 | 13:00 | 32 | 20 | 62 | 30.02 | S | 7 | 0.00 |
| 13 | 01/04 | 12:00 | 32 | 21 | 64 | 30.05 | WNW | 9 | 0.00 |
| 14 | 01/04 | 11:00 | 30 | 20 | 67 | 30.06 | NW | 6 | 0.00 |
| 15 | 01/04 | 10:00 | 31 | 20 | 64 | 30.05 | WNW | 1 | 0.00 |
| 16 | 01/04 | 09:00 | 30 | 20 | 67 | 30.04 | S | 1 | 0.00 |
| 17 | 01/04 | 08:00 | 28 | 18 | 68 | 30.04 | SW | 1 | 0.00 |
| 18 | 01/04 | 07:00 | 28 | 19 | 70 | 30.04 | SSW | 0 | 0.00 |
| 19 | 01/04 | 06:00 | 28 | 17 | 63 | 30.02 | SSW | 2 | 0.00 |
| 20 | 01/04 | 05:00 | 27 | 16 | 65 | 30.02 | SW | 0 | 0.00 |
| 21 | 01/04 | 04:00 | 27 | 15 | 62 | 30.01 | WSW | 1 | 0.00 |
| 22 | 01/04 | 03:00 | 27 | 14 | 60 | 30.02 | SSW | 2 | 0.00 |
| 23 | 01/04 | 02:00 | 27 | 16 | 63 | 30.02 | S | 3 | 0.00 |
| 24 | 01/04 | 01:00 | 27 | 16 | 65 | 30.04 | S | 1 | 0.00 |